COSMOS 2491 DEB, 57553

Orbit data source: Space-Track

COSMOS 2491 DEB, 57553 is space debris in LEO originally from a launch on Wed, 25 Dec 2013 UTC launched from the Plesetsk Missile And Space Complex (PKMTR). Debris objects in space refer to the collection of defunct objects orbiting the Earth. Examples of debris include non-operational satellites, rocket bodies, and fragments generated from explosions, collisions, or faulty payload assembly.

Loading next visibility...
Identifier
57553, 2013-076AQ
Orbit
LEO
Country
Flag of CISCIS
Related business
Manufacturer
TsNIIKhM
Mission
Spacecraft
Bus & Motor
Unknown
Mass
Unknown
Launch date (UTC)
2013-12-25 (12 years ago)
Launch vehicle
Unknown
Launch site
Plesetsk Missile And Space Complex (PKMTR)
Object type
Payload
Rocket body
Debris
Shape & HBR
Unknown shape, 0.1 m
Radar Cross Section
Small (<0.1 m²)

Expand to show TLE details & history
Last TLE update: 1 week ago

TLE from 1 week ago
0 COSMOS 2491 DEB
1 57553U 13076AQ  26166.67167118  .00000073  00000-0  41446-3 0  9992
2 57553  82.4811 149.1625 0045218 320.7704  39.0106 12.50316830141589
Epoch: 2026-06-15T16:07Z
TLE epoch observation values (Epoch: 2026-06-15T16:07:12.389Z)
Latitude
-0.00001°
Longitude
3.40617°
Altitude
1,438.388 km
Speed
7.155 km/s
True Right ascension
09h 56m 38s
True Declination
0° 00' 00"
Sunlit
Object was in daylight at epoch
Visualization orbit readout
Latitude
Unknown
Longitude
Unknown
Altitude
Unknown
Speed
Unknown
Apparent Right ascension
Unknown
Apparent Declination
Unknown
Sunlit
N/A
Visualization observer readout
Local Sidereal Time
21:37:51
Azimuth
Unknown
Elevation
Unknown
Doppler factor
Unknown
Orbital elements
Apogee altitude
1,495.956 km
Perigee altitude
1,425.067 km
Semi-major axis
7,838.648 km
Eccentricity
0.00452
Inclination
82.4811°
RAAN
149.1625°
Arg. of periapsis
320.7704°
True anomaly
39.3382°
Mean anomaly
39.0106°
Eccentric anomaly
39.17426°
Mean motion
3.12739 °/min
Orbital period
115.11 mins
BSTAR
0.00041446
Loading maneuver chart data...
Computing Atmospheric mass density...
Loading historical data...
Loading historical data...
Loading historical data...
Loading historical data...
Loading historical data...
Loading historical data...
Loading historical data...

Documentation

Showing up to 5 results
|